Weather History for Nassau, Bahamas

Change the Weather History Date:

Friday, March 15, 2013

  Actual Average Record
Temperature  
Mean Temperature 68 °F -  
Max Temperature 72 °F 81 °F 87 °F (2008)
Min Temperature 64 °F 65 °F 60 °F (1998)
Cooling Degree Days 3    
Growing Degree Days 18 (Base 50)    
Moisture  
Dew Point 51 °F    
Average Humidity 53    
Maximum Humidity 60    
Minimum Humidity 37    
Precipitation  
Precipitation 0.00 in 0.06 in - ()
Sea Level Pressure  
Sea Level Pressure 30.17 in    
Wind  
Wind Speed 9 mph ()    
Max Wind Speed 16 mph    
Max Gust Speed -    
Visibility 6.8 miles    
Events      
Averages and records for this station are not official NWS values.
T = Trace of Precipitation, MM = Missing Value Source: Averaged Metar Reports

Daily Weather History Graph

Daily Weather History Graph

Search for Another Location

Airport:

Trip Planner

Search our weather history database for the weather conditions in past years. The results will help you decide how hot, cold, wet, or windy it might be!

Date:

Astronomy

Mar. 15, 2013 Rise Set
Actual Time 7:18 AM EDT 7:18 PM EDT
Civil Twilight 6:55 AM EDT 7:41 PM EDT
Nautical Twilight 6:29 AM EDT 8:08 PM EDT
Astronomical Twilight 6:02 AM EDT 8:34 PM EDT
Moon 9:34 AM EDT (3/15) 11:01 PM EDT (3/15)
Length of Visible Light 12h 45m
Length of Day
12h 00m
Waxing Crescent, 15% of the Moon is Illuminated
Mar 15
Waxing Crescent
Mar 19
First Quarter
Mar 27
Full
Apr 3
Last Quarter
Apr 10
New

Hourly Weather History & Observations

Time (EDT) Temp. Dew Point Humidity Pressure Visibility Wind Dir Wind Speed Gust Speed Precip Events Conditions
12:00 AM 66.2 °F 51.8 °F 60% 30.15 in 6.2 mi North 11.5 mph - N/A   Mostly Cloudy
1:00 AM 66.2 °F 50.0 °F 56% 30.14 in 6.2 mi NNE 11.5 mph - N/A   Mostly Cloudy
2:00 AM 65 °F 50 °F 47% 30.14 in 9 mi North 9.2 mph - -   Partly Cloudy
2:00 AM 64.4 °F 50.0 °F 59% 30.13 in 6.2 mi North 9.2 mph - N/A   Scattered Clouds
3:00 AM 64.4 °F 48.2 °F 56% 30.13 in 6.2 mi North 11.5 mph - N/A   Scattered Clouds
4:00 AM 64.4 °F 48.2 °F 56% 30.12 in 6.2 mi North 11.5 mph - N/A   Scattered Clouds
5:00 AM 66 °F 50 °F 46% 30.12 in 8 mi North 11.5 mph - -   Partly Cloudy
5:00 AM 66.2 °F 50.0 °F 56% 30.12 in 6.2 mi North 11.5 mph - N/A   Scattered Clouds
6:00 AM 66.2 °F 51.8 °F 60% 30.13 in 6.2 mi North 9.2 mph - N/A   Mostly Cloudy
7:00 AM 66.2 °F 50.0 °F 56% 30.16 in 6.2 mi North 11.5 mph - N/A   Mostly Cloudy
8:00 AM 66 °F 51 °F 48% 30.19 in 8 mi NNE 13.8 mph - -   Partly Cloudy
8:00 AM 66.2 °F 51.8 °F 60% 30.19 in 6.2 mi NNE 13.8 mph - N/A   Mostly Cloudy
9:00 AM 66.2 °F 50.0 °F 56% 30.21 in 6.2 mi NNE 11.5 mph - N/A   Mostly Cloudy
10:00 AM 68.0 °F 48.2 °F 49% 30.23 in 6.2 mi NNE 9.2 mph - N/A   Mostly Cloudy
11:00 AM 71 °F 52 °F 41% 30.23 in 8 mi NNE 11.5 mph - -   Partly Cloudy
11:00 AM 71.6 °F 51.8 °F 50% 30.23 in 6.2 mi NNE 11.5 mph - N/A   Mostly Cloudy
12:00 PM 68.0 °F 48.2 °F 49% 30.24 in 6.2 mi North 11.5 mph - N/A   Mostly Cloudy
1:00 PM 69.8 °F 48.2 °F 46% 30.22 in 6.2 mi NNE 16.1 mph - N/A   Mostly Cloudy
2:00 PM 72 °F 51 °F 37% 30.20 in 9 mi NNE 11.5 mph - -   Scattered Clouds
2:00 PM 71.6 °F 51.8 °F 50% 30.20 in 6.2 mi NNE 11.5 mph - N/A   Mostly Cloudy
3:00 PM 69.8 °F 53.6 °F 56% 30.19 in 6.2 mi NNE 12.7 mph - N/A   Mostly Cloudy
4:00 PM 69.8 °F 51.8 °F 53% 30.17 in 6.2 mi NNE 10.4 mph - N/A   Mostly Cloudy
5:00 PM - 69 °F % 30.16 in 9 mi NE 4.6 mph - -   Scattered Clouds
5:00 PM 69.8 °F 50.0 °F 49% 30.15 in 6.2 mi NE 4.6 mph - N/A   Mostly Cloudy
6:00 PM 69.8 °F 51.8 °F 53% 30.15 in 6.2 mi ENE 4.6 mph - N/A   Mostly Cloudy
8:00 PM 67 °F 51 °F 47% 30.17 in 9 mi NNE 3.5 mph - -   Partly Cloudy
8:00 PM 66.2 °F 51.8 °F 60% 30.17 in 6.2 mi NNE 3.5 mph - N/A   Scattered Clouds
9:00 PM 66.2 °F 51.8 °F 60% 30.18 in 6.2 mi NE 3.5 mph - N/A   Scattered Clouds
10:00 PM 66.2 °F 48.2 °F 52% 30.18 in 6.2 mi NE 5.8 mph - N/A   Partly Cloudy
11:00 PM 64 °F - % 30.18 in 9 mi NE 3.5 mph - -   Mostly Cloudy
11:00 PM 64.4 °F 50.0 °F 59% 30.18 in 6.2 mi NE 3.5 mph - N/A   Scattered Clouds